When you browse on this site, cookies collect data to enhance your experience and personalize the content and advertising you see.
Visit our Privacy Policy to learn more. By continuing to use the site, you agree to this use of cookies and data.
  • In Norway
  • List of Countries
  • For 7 days
  • Water Temperature
  • Satellite Maps
  • Weather Map
  • Weather Widgets
  • user-avatar
    Login

    Hourly Weather Irbid

    Today, 22 January, Tuesday

    Time Temperature Precipitation Wind Pressure Humidity
    00:00 +10°C° 0 mm 2 mps 712 mmHg 48%
    01:00 +9°C° 0 mm 2 mps 711 mmHg 48%
    02:00 +9°C° 0 mm 2 mps 711 mmHg 49%
    03:00 +9°C° 0 mm 2 mps 711 mmHg 49%
    04:00 +9°C° 0 mm 2 mps 711 mmHg 49%
    05:00 +8°C° 0 mm 2 mps 711 mmHg 49%
    06:00 +9°C° 0 mm 2 mps 711 mmHg 48%
    07:00 +10°C° 0 mm 2 mps 711 mmHg 47%
    08:00 +10°C° 0 mm 2 mps 711 mmHg 46%
    09:00 +13°C° 0 mm 1 mps 712 mmHg 42%
    10:00 +14°C° 0 mm 1 mps 712 mmHg 38%
    11:00 +16°C° 0 mm 1 mps 712 mmHg 34%
    12:00 +18°C° 0 mm 1 mps 712 mmHg 33%
    13:00 +17°C° 0 mm 2 mps 712 mmHg 32%
    14:00 +18°C° 0 mm 3 mps 711 mmHg 32%
    15:00 +16°C° 0 mm 3 mps 711 mmHg 38%
    16:00 +14°C° 0 mm 3 mps 711 mmHg 45%
    17:00 +14°C° 0 mm 2 mps 711 mmHg 52%
    18:00 +13°C° 0 mm 2 mps 711 mmHg 58%
    19:00 +12°C° 0 mm 1 mps 711 mmHg 64%
    20:00 +11°C° 0 mm 1 mps 711 mmHg 70%
    21:00 +10°C° 0 mm 1 mps 711 mmHg 74%
    22:00 +9°C° 0 mm 0 mps 711 mmHg 77%
    23:00 +8°C° 0 mm 0 mps 712 mmHg 81%

    Tomorrow, 23 January, Wednesday

    Time Temperature Precipitation Wind Pressure Humidity
    00:00 +8°C° 0 mm 0 mps 711 mmHg 82%
    01:00 +7°C° 0 mm 0 mps 711 mmHg 83%
    02:00 +7°C° 0 mm 0 mps 711 mmHg 84%
    03:00 +7°C° 0 mm 0 mps 711 mmHg 84%
    04:00 +7°C° 0 mm 0 mps 711 mmHg 83%
    05:00 +6°C° 0 mm 0 mps 711 mmHg 83%
    06:00 +8°C° 0 mm 1 mps 711 mmHg 78%
    07:00 +9°C° 0 mm 1 mps 712 mmHg 72%
    08:00 +10°C° 0 mm 1 mps 712 mmHg 67%
    09:00 +12°C° 0 mm 1 mps 712 mmHg 58%
    10:00 +14°C° 0 mm 1 mps 712 mmHg 49%
    11:00 +15°C° 0 mm 2 mps 712 mmHg 39%
    12:00 +16°C° 0 mm 2 mps 712 mmHg 35%
    13:00 +17°C° 0 mm 2 mps 711 mmHg 31%
    14:00 +18°C° 0 mm 2 mps 711 mmHg 27%
    15:00 +17°C° 0 mm 2 mps 710 mmHg 30%
    16:00 +16°C° 0 mm 2 mps 710 mmHg 32%
    17:00 +14°C° 0 mm 2 mps 710 mmHg 35%
    18:00 +14°C° 0 mm 2 mps 710 mmHg 37%
    19:00 +12°C° 0 mm 3 mps 710 mmHg 39%
    20:00 +11°C° 0 mm 3 mps 710 mmHg 40%
    21:00 +11°C° 0 mm 3 mps 709 mmHg 42%
    22:00 +11°C° 0 mm 3 mps 709 mmHg 44%
    23:00 +10°C° 0 mm 3 mps 709 mmHg 45%

    Day after tomorrow, 24 January, Thursday

    Time Temperature Precipitation Wind Pressure Humidity
    00:00 +10°C° 0 mm 3 mps 709 mmHg 46%
    01:00 +9°C° 0 mm 3 mps 709 mmHg 47%
    02:00 +9°C° 0 mm 3 mps 709 mmHg 47%
    03:00 +9°C° 0 mm 3 mps 708 mmHg 48%
    04:00 +8°C° 0 mm 3 mps 708 mmHg 48%
    05:00 +8°C° 0 mm 3 mps 707 mmHg 49%
    06:00 +9°C° 0 mm 3 mps 708 mmHg 49%
    07:00 +9°C° 0 mm 3 mps 708 mmHg 48%
    08:00 +10°C° 0 mm 3 mps 709 mmHg 48%
    09:00 +12°C° 0 mm 3 mps 709 mmHg 42%
    10:00 +14°C° 0 mm 4 mps 708 mmHg 36%
    11:00 +17°C° 0 mm 4 mps 708 mmHg 29%
    12:00 +18°C° 0 mm 3 mps 708 mmHg 27%
    13:00 +19°C° 0 mm 3 mps 708 mmHg 25%
    14:00 +20°C° 0 mm 2 mps 708 mmHg 22%
    15:00 +19°C° 0 mm 2 mps 708 mmHg 26%
    16:00 +18°C° 0 mm 2 mps 707 mmHg 29%
    17:00 +16°C° 0 mm 2 mps 707 mmHg 32%
    18:00 +16°C° 0 mm 2 mps 708 mmHg 32%
    19:00 +15°C° 0 mm 2 mps 708 mmHg 33%
    20:00 +15°C° 0 mm 2 mps 708 mmHg 33%
    21:00 +13°C° 0 mm 2 mps 709 mmHg 47%
    22:00 +12°C° 0 mm 2 mps 709 mmHg 60%
    23:00 +10°C° 0 mm 2 mps 709 mmHg 73%

    25 January, Friday

    Time Temperature Precipitation Wind Pressure Humidity
    00:00 +9°C° 0 mm 2 mps 710 mmHg 78%
    01:00 +9°C° 0 mm 2 mps 710 mmHg 83%
    02:00 +9°C° 0 mm 1 mps 710 mmHg 88%
    03:00 +9°C° 0 mm 1 mps 710 mmHg 89%
    04:00 +8°C° 0 mm 1 mps 710 mmHg 89%
    05:00 +8°C° 0 mm 1 mps 710 mmHg 89%
    06:00 +8°C° 0 mm 1 mps 710 mmHg 86%
    07:00 +9°C° 0 mm 1 mps 711 mmHg 82%
    08:00 +9°C° 0 mm 2 mps 711 mmHg 78%
    09:00 +12°C° 0 mm 2 mps 712 mmHg 68%
    10:00 +13°C° 0 mm 2 mps 712 mmHg 59%
    11:00 +15°C° 0 mm 2 mps 712 mmHg 49%
    12:00 +16°C° 0 mm 2 mps 712 mmHg 44%
    13:00 +17°C° 0 mm 2 mps 711 mmHg 39%
    14:00 +18°C° 0 mm 2 mps 711 mmHg 33%
    15:00 +17°C° 0 mm 2 mps 710 mmHg 38%
    16:00 +16°C° 0 mm 1 mps 710 mmHg 42%
    17:00 +15°C° 0 mm 1 mps 710 mmHg 47%
    18:00 +14°C° 0 mm 1 mps 710 mmHg 47%
    19:00 +14°C° 0 mm 2 mps 710 mmHg 48%
    20:00 +13°C° 0 mm 2 mps 710 mmHg 48%
    21:00 +13°C° 0 mm 2 mps 710 mmHg 50%
    22:00 +12°C° 0 mm 2 mps 710 mmHg 52%
    23:00 +12°C° 0 mm 2 mps 709 mmHg 53%

    26 January, Saturday

    Time Temperature Precipitation Wind Pressure Humidity
    00:00 +12°C° 0 mm 2 mps 709 mmHg 54%
    01:00 +10°C° 0 mm 2 mps 709 mmHg 56%
    02:00 +10°C° 0 mm 2 mps 709 mmHg 57%
    03:00 +9°C° 0 mm 2 mps 708 mmHg 58%
    04:00 +9°C° 0 mm 2 mps 708 mmHg 58%
    05:00 +10°C° 0 mm 1 mps 708 mmHg 59%
    06:00 +10°C° 0 mm 2 mps 708 mmHg 56%
    07:00 +12°C° 0 mm 2 mps 709 mmHg 54%
    08:00 +13°C° 0 mm 2 mps 709 mmHg 52%
    09:00 +15°C° 0 mm 2 mps 709 mmHg 45%
    10:00 +17°C° 0 mm 2 mps 709 mmHg 38%
    11:00 +19°C° 0 mm 2 mps 710 mmHg 31%
    12:00 +20°C° 0 mm 2 mps 709 mmHg 29%
    13:00 +21°C° 0 mm 2 mps 708 mmHg 26%
    14:00 +23°C° 0 mm 2 mps 708 mmHg 23%
    15:00 +21°C° 0 mm 1 mps 707 mmHg 29%
    16:00 +19°C° 0 mm 1 mps 707 mmHg 35%
    17:00 +18°C° 0 mm 1 mps 707 mmHg 40%
    18:00 +16°C° 0 mm 1 mps 707 mmHg 41%
    19:00 +15°C° 0 mm 1 mps 706 mmHg 41%
    20:00 +15°C° 0 mm 1 mps 706 mmHg 41%
    21:00 +15°C° 0 mm 1 mps 706 mmHg 42%
    22:00 +14°C° 0 mm 1 mps 706 mmHg 43%
    23:00 +14°C° 0 mm 1 mps 706 mmHg 43%

    27 January, Sunday

    Time Temperature Precipitation Wind Pressure Humidity
    00:00 +14°C° 0 mm 1 mps 706 mmHg 44%
    01:00 +13°C° 0 mm 1 mps 706 mmHg 45%
    02:00 +13°C° 0 mm 1 mps 706 mmHg 46%
    03:00 +12°C° 0 mm 1 mps 706 mmHg 52%
    04:00 +11°C° 0 mm 1 mps 706 mmHg 58%
    05:00 +10°C° 0 mm 2 mps 706 mmHg 64%
    06:00 +10°C° 0 mm 2 mps 707 mmHg 70%
    07:00 +12°C° 0 mm 2 mps 707 mmHg 75%
    08:00 +12°C° 0 mm 1 mps 708 mmHg 80%
    09:00 +12°C° 0 mm 3 mps 708 mmHg 70%
    10:00 +13°C° 0 mm 4 mps 708 mmHg 60%
    11:00 +15°C° 0 mm 6 mps 709 mmHg 50%
    12:00 +14°C° 0 mm 7 mps 709 mmHg 45%
    13:00 +13°C° 0 mm 9 mps 709 mmHg 40%
    14:00 +13°C° 0 mm 11 mps 709 mmHg 35%
    15:00 +11°C° 0 mm 10 mps 709 mmHg 40%
    16:00 +10°C° 0 mm 9 mps 709 mmHg 46%
    17:00 +8°C° 0 mm 9 mps 710 mmHg 51%
    18:00 +8°C° 0 mm 7 mps 710 mmHg 54%
    19:00 +8°C° 0 mm 6 mps 711 mmHg 56%
    20:00 +7°C° 0 mm 4 mps 711 mmHg 59%
    21:00 +7°C° 0 mm 4 mps 711 mmHg 62%
    22:00 +8°C° 0 mm 3 mps 712 mmHg 64%
    23:00 +8°C° 0 mm 3 mps 712 mmHg 67%
    Show more